Time,TemperatureF,DewpointF,PressureIn,WindDirection,WindDirectionDegrees,WindSpeedMPH,WindSpeedGustMPH,Humidity,HourlyPrecipIn,Conditions,Clouds,dailyrainin,SoftwareType,DateUTC
2013-07-04 07:34:00,60.1,54.2,29.81,NE,45,1.7,-999.0,81,-99.99,,,0.00,Acu-Link.com,2013-07-04 14:34:00,
2013-07-04 07:50:00,61.0,55.1,29.82,ENE,67,0.0,-999.0,81,-99.99,,,0.00,Acu-Link.com,2013-07-04 14:50:00,
2013-07-04 08:34:00,61.0,55.1,29.83,SSW,202,1.7,-999.0,81,-99.99,,,0.00,Acu-Link.com,2013-07-04 15:34:00,
2013-07-04 09:09:00,61.0,56.1,29.82,SSW,202,3.2,-999.0,84,-99.99,,,0.00,Acu-Link.com,2013-07-04 16:09:00,
2013-07-04 09:24:00,60.8,56.3,29.83,ESE,112,2.7,-999.0,85,-99.99,,,0.00,Acu-Link.com,2013-07-04 16:24:00,
2013-07-04 09:39:00,60.3,56.4,29.82,SSW,202,4.7,-999.0,87,-99.99,,,0.00,Acu-Link.com,2013-07-04 16:39:00,
2013-07-04 09:54:00,60.1,56.2,29.82,SSW,202,4.2,-999.0,87,-99.99,,,0.00,Acu-Link.com,2013-07-04 16:54:00,
2013-07-04 10:09:00,60.1,56.2,29.82,South,180,7.3,-999.0,87,-99.99,,,0.00,Acu-Link.com,2013-07-04 17:09:00,
2013-07-04 10:25:00,60.3,56.4,29.82,SSW,202,6.8,-999.0,87,-99.99,,,0.00,Acu-Link.com,2013-07-04 17:25:00,
2013-07-04 10:45:00,62.4,56.8,29.82,SSW,202,3.7,-999.0,82,-99.99,,,0.00,Acu-Link.com,2013-07-04 17:45:00,
2013-07-04 11:29:00,62.2,56.3,29.81,South,180,4.2,-999.0,81,-99.99,,,0.00,Acu-Link.com,2013-07-04 18:29:00,
2013-07-04 11:50:00,65.1,56.2,29.81,South,180,1.7,-999.0,73,-99.99,,,0.00,Acu-Link.com,2013-07-04 18:50:00,
2013-07-04 12:07:00,63.7,55.6,29.81,WSW,247,3.7,-999.0,75,-99.99,,,0.00,Acu-Link.com,2013-07-04 19:07:00,
2013-07-04 12:38:00,64.9,55.3,29.81,WSW,247,4.7,-999.0,71,-99.99,,,0.00,Acu-Link.com,2013-07-04 19:38:00,
2013-07-04 13:06:00,65.5,55.8,29.82,SSW,202,2.2,-999.0,71,-99.99,,,0.00,Acu-Link.com,2013-07-04 20:06:00,
2013-07-04 13:54:00,65.5,56.2,29.81,SSW,202,7.8,-999.0,72,-99.99,,,0.00,Acu-Link.com,2013-07-04 20:54:00,
2013-07-04 14:46:00,67.3,55.1,29.81,South,180,9.4,-999.0,65,-99.99,,,0.00,Acu-Link.com,2013-07-04 21:46:00,
2013-07-04 15:01:00,68.2,55.1,29.80,SSW,202,6.3,-999.0,63,-99.99,,,0.00,Acu-Link.com,2013-07-04 22:01:00,
2013-07-04 15:17:00,68.4,55.7,29.79,South,180,5.8,-999.0,64,-99.99,,,0.00,Acu-Link.com,2013-07-04 22:17:00,
2013-07-04 15:33:00,68.7,55.1,29.79,South,180,3.7,-999.0,62,-99.99,,,0.00,Acu-Link.com,2013-07-04 22:33:00,
2013-07-04 15:50:00,69.4,54.9,29.79,South,180,5.3,-999.0,60,-99.99,,,0.00,Acu-Link.com,2013-07-04 22:50:00,
2013-07-04 16:18:00,69.6,56.0,29.78,SSE,157,5.3,-999.0,62,-99.99,,,0.00,Acu-Link.com,2013-07-04 23:18:00,
2013-07-04 16:35:00,69.8,55.3,29.77,SSW,202,5.3,-999.0,60,-99.99,,,0.00,Acu-Link.com,2013-07-04 23:35:00,
2013-07-04 16:50:00,70.9,55.8,29.76,South,180,3.7,-999.0,59,-99.99,,,0.00,Acu-Link.com,2013-07-04 23:50:00,
2013-07-04 17:05:00,70.3,55.3,29.75,SW,225,4.7,-999.0,59,-99.99,,,0.00,Acu-Link.com,2013-07-05 00:05:00,
2013-07-04 17:20:00,70.9,54.9,29.74,South,180,3.2,-999.0,57,-99.99,,,0.00,Acu-Link.com,2013-07-05 00:20:00,
2013-07-04 17:36:00,70.5,54.5,29.74,NE,45,0.0,-999.0,57,-99.99,,,0.00,Acu-Link.com,2013-07-05 00:36:00,
2013-07-04 17:51:00,70.9,54.4,29.73,NNW,337,4.2,-999.0,56,-99.99,,,0.00,Acu-Link.com,2013-07-05 00:51:00,
2013-07-04 18:06:00,72.7,55.1,29.73,West,270,3.7,-999.0,54,-99.99,,,0.00,Acu-Link.com,2013-07-05 01:06:00,
2013-07-04 18:21:00,74.8,54.9,29.72,South,180,1.7,-999.0,50,-99.99,,,0.00,Acu-Link.com,2013-07-05 01:21:00,
2013-07-04 18:36:00,73.0,55.4,29.73,SSE,157,0.0,-999.0,54,-99.99,,,0.00,Acu-Link.com,2013-07-05 01:36:00,
2013-07-04 18:51:00,71.4,56.3,29.72,SSW,202,4.2,-999.0,59,-99.99,,,0.00,Acu-Link.com,2013-07-05 01:51:00,
2013-07-04 19:07:00,72.5,55.9,29.72,SW,225,5.8,-999.0,56,-99.99,,,0.00,Acu-Link.com,2013-07-05 02:07:00,
2013-07-04 19:23:00,70.3,56.2,29.72,SW,225,0.0,-999.0,61,-99.99,,,0.00,Acu-Link.com,2013-07-05 02:23:00,
2013-07-04 19:38:00,69.4,55.8,29.72,WSW,247,2.2,-999.0,62,-99.99,,,0.00,Acu-Link.com,2013-07-05 02:38:00,
2013-07-04 19:54:00,68.7,56.0,29.72,West,270,3.7,-999.0,64,-99.99,,,0.00,Acu-Link.com,2013-07-05 02:54:00,
2013-07-04 20:13:00,68.5,55.8,29.72,WSW,247,4.2,-999.0,64,-99.99,,,0.00,Acu-Link.com,2013-07-05 03:13:00,
2013-07-04 20:28:00,68.2,55.5,29.71,NW,315,1.7,-999.0,64,-99.99,,,0.00,Acu-Link.com,2013-07-05 03:28:00,
2013-07-04 20:48:00,68.4,55.7,29.71,SSE,157,2.7,-999.0,64,-99.99,,,0.00,Acu-Link.com,2013-07-05 03:48:00,
2013-07-04 21:06:00,68.2,56.0,29.72,SW,225,1.7,-999.0,65,-99.99,,,0.00,Acu-Link.com,2013-07-05 04:06:00,
2013-07-04 21:21:00,67.8,56.4,29.72,SSW,202,2.2,-999.0,67,-99.99,,,0.00,Acu-Link.com,2013-07-05 04:21:00,
2013-07-04 21:37:00,67.6,56.2,29.72,WSW,247,3.7,-999.0,67,-99.99,,,0.00,Acu-Link.com,2013-07-05 04:37:00,
2013-07-04 21:52:00,66.9,56.4,29.72,SSW,202,1.1,-999.0,69,-99.99,,,0.00,Acu-Link.com,2013-07-05 04:52:00,
2013-07-04 22:07:00,66.7,57.0,29.73,SSW,202,2.2,-999.0,71,-99.99,,,0.00,Acu-Link.com,2013-07-05 05:07:00,
2013-07-04 22:22:00,65.5,55.8,29.72,WNW,292,2.7,-999.0,71,-99.99,,,0.00,Acu-Link.com,2013-07-05 05:22:00,
2013-07-04 22:37:00,64.6,55.7,29.73,WNW,292,3.2,-999.0,73,-99.99,,,0.00,Acu-Link.com,2013-07-05 05:37:00,
2013-07-04 22:53:00,64.0,55.9,29.73,North,0,2.7,-999.0,75,-99.99,,,0.00,Acu-Link.com,2013-07-05 05:53:00,
2013-07-04 23:08:00,63.5,55.8,29.73,SW,225,0.0,-999.0,76,-99.99,,,0.00,Acu-Link.com,2013-07-05 06:08:00,
2013-07-04 23:23:00,63.3,57.7,29.72,WSW,247,0.0,-999.0,82,-99.99,,,0.00,Acu-Link.com,2013-07-05 06:23:00,
2013-07-04 23:38:00,62.8,57.2,29.71,SE,135,0.0,-999.0,82,-99.99,,,0.00,Acu-Link.com,2013-07-05 06:38:00,
2013-07-04 23:53:00,62.4,57.2,29.71,West,270,0.0,-999.0,83,-99.99,,,0.00,Acu-Link.com,2013-07-05 06:53:00,